カタログに戻る

STARLINK-36240

運用中通信VLEO
NORAD 67076·PAYLOAD·🇺🇸 United States

打ち上げ Dec 14, 2025 から Vandenberg Space Force Base

Loading…

次のパス (今後24時間)

TLE

最新Source: CelesTrak SupGP

元期: Sep 14, 2026, 20:53 UTC

1 67076C 25298B   26257.87062500  .00072070  00000+0  60401-2 0  2577
2 67076  69.9994 257.4891 0003850 266.4501 113.6636 14.98289977    11

AllMySatでSTARLINK-36240をリアルタイム追跡

Download on the App Store